Location: Zagreb
(45.8000°N, 16.0000°E)
Time: 19:56:21
(UTC+02:00)

S-56A Canister/Altair - All Passes

Search period start: 09 August 2020 00:00
Search period end: 19 August 2020 00:00
Orbit: 633 x 2499 km, 38.9° (Epoch: 08 August)

Date Brightness Start Highest point End Pass type
(mag) Time Alt. Az. Time Alt. Az. Time Alt. Az.
09 Aug - 06:54:22 10° SSW 07:00:31 31° SE 07:09:09 10° E daylight
09 Aug - 08:56:00 10° WSW 09:04:10 57° SSE 09:16:22 10° E daylight
09 Aug - 10:59:15 10° W 11:09:12 58° S 11:22:59 10° ESE daylight
09 Aug - 13:03:41 10° W 13:14:27 39° SSW 13:27:33 10° SSE daylight
09 Aug - 15:11:38 10° WSW 15:18:51 16° SW 15:26:30 10° SSW daylight
10 Aug - 06:22:22 10° SSW 06:27:53 26° SE 06:35:21 10° E daylight
10 Aug - 08:23:35 10° WSW 08:31:11 54° SSE 08:42:36 10° E daylight
10 Aug - 10:26:37 10° W 10:35:57 59° S 10:49:19 10° ESE daylight
10 Aug - 12:30:44 10° W 12:41:09 41° SSW 12:54:17 10° SE daylight
10 Aug - 14:37:44 10° W 14:45:42 18° SW 14:54:22 10° S daylight
11 Aug - 05:50:31 10° S 05:55:18 22° SE 06:01:32 10° E daylight
11 Aug - 07:51:14 10° SW 07:58:17 50° SSE 08:08:51 10° E daylight
11 Aug - 09:54:02 10° W 10:02:47 59° S 10:15:36 10° ESE daylight
11 Aug - 11:57:54 10° W 12:07:52 43° SSW 12:20:56 10° SE daylight
11 Aug - 14:04:09 10° W 14:12:32 20° SW 14:21:58 10° S daylight
12 Aug - 05:18:50 10° S 05:22:47 17° SE 05:27:39 10° E visible
12 Aug - 07:18:56 10° SW 07:25:27 46° SSE 07:35:10 10° E daylight
12 Aug - 09:21:31 10° WSW 09:29:41 58° S 09:41:53 10° ESE daylight
12 Aug - 11:25:07 10° W 11:34:38 44° SSW 11:47:31 10° SE daylight
12 Aug - 13:30:47 10° W 13:39:21 22° SW 13:49:19 10° S daylight
13 Aug - 04:47:28 10° SSE 04:50:17 14° SE 04:53:33 10° ESE visible
13 Aug - 06:46:42 10° SW 06:52:43 41° SSE 07:01:31 10° E daylight
13 Aug - 08:49:02 10° WSW 08:56:40 58° S 09:08:11 10° ESE daylight
13 Aug - 10:52:26 10° W 11:01:27 46° SSW 11:14:01 10° SE daylight
13 Aug - 12:57:35 10° W 13:06:10 24° SW 13:16:30 10° S daylight
14 Aug - 06:14:31 10° SW 06:20:02 37° SSE 06:27:56 10° E daylight
14 Aug - 08:16:37 10° WSW 08:23:43 56° S 08:34:30 10° ESE daylight
14 Aug - 10:19:49 10° W 10:28:19 47° SSW 10:40:28 10° SE daylight
14 Aug - 12:24:32 10° W 12:33:01 26° SW 12:43:33 10° SSE daylight
15 Aug - 05:42:24 10° SSW 05:47:26 32° SSE 05:54:24 10° E daylight
15 Aug - 07:44:15 10° WSW 07:50:51 54° S 08:00:51 10° ESE daylight
15 Aug - 09:47:17 10° W 09:55:15 48° SSW 10:06:54 10° SE daylight
15 Aug - 11:51:36 10° W 11:59:53 28° SSW 12:10:29 10° SSE daylight
16 Aug - 05:10:20 10° SSW 05:14:53 27° SSE 05:20:55 10° E visible
16 Aug - 07:11:55 10° WSW 07:18:03 51° S 07:27:16 10° E daylight
16 Aug - 09:14:46 10° W 09:22:15 49° SSW 09:33:20 10° ESE daylight
16 Aug - 11:18:47 10° W 11:26:47 29° SSW 11:37:18 10° SSE daylight
17 Aug - 04:38:22 10° SSW 04:42:23 22° SSE 04:47:27 10° E visible
17 Aug - 06:39:37 10° WSW 06:45:19 48° S 06:53:45 10° E daylight
17 Aug - 08:42:20 10° W 08:49:18 49° S 08:59:45 10° ESE daylight
17 Aug - 10:46:04 10° W 10:53:45 31° SSW 11:04:04 10° SSE daylight
17 Aug - 12:54:52 10° WSW 12:57:59 11° SW 13:01:19 10° SSW daylight
18 Aug - 04:06:29 10° S 04:09:55 18° SE 04:14:00 10° ESE visible
18 Aug - 06:07:20 10° WSW 06:12:39 45° SSE 06:20:18 10° E daylight
18 Aug - 08:09:55 10° W 08:16:26 49° S 08:26:13 10° ESE daylight
18 Aug - 10:13:25 10° W 10:20:43 32° SSW 10:30:47 10° SSE daylight
18 Aug - 12:20:49 10° WSW 12:24:59 13° SW 12:29:35 10° SSW daylight
